Weather History for Houma, LA

Change the Weather History Date:

Sunday, March 2, 2014

  Actual Average Record
Temperature  
Mean Temperature 70 °F -  
Max Temperature 78 °F 70 °F 83 °F (1932)
Min Temperature 61 °F 51 °F 25 °F (1980)
Cooling Degree Days 4    
Growing Degree Days 20 (Base 50)    
Moisture  
Dew Point 62 °F    
Average Humidity 83    
Maximum Humidity 94    
Minimum Humidity 61    
Precipitation  
Precipitation 0.00 in - - ()
Sea Level Pressure  
Sea Level Pressure 30.05 in    
Wind  
Wind Speed 7 mph (SE)    
Max Wind Speed 20 mph    
Max Gust Speed 17 mph    
Visibility 7 miles    
Events      
Averages and records for this station are not official NWS values.
T = Trace of Precipitation, MM = Missing Value Source: NWS Daily Summary

Daily Weather History Graph

Daily Weather History Graph

Search for Another Location

Airport:

Trip Planner

Search our weather history database for the weather conditions in past years. The results will help you decide how hot, cold, wet, or windy it might be!

Date:

Astronomy

Mar. 02, 2014 Rise Set
Actual Time 6:27 AM CST 6:02 PM CST
Civil Twilight 6:03 AM CST 6:26 PM CST
Nautical Twilight 5:35 AM CST 6:54 PM CST
Astronomical Twilight 5:08 AM CST 7:21 PM CST
Moon 7:07 AM CST (3/2) 7:47 PM CST (3/2)
Length of Visible Light 12h 23m
Length of Day
11h 35m
Waxing Crescent, 3% of the Moon is Illuminated
Mar 2
Waxing Crescent
Mar 8
First Quarter
Mar 16
Full
Mar 23
Last Quarter
Mar 30
New

Hourly Weather History & Observations

Time (CST) Temp. Dew Point Humidity Pressure Visibility Wind Dir Wind Speed Gust Speed Precip Events Conditions
12:15 AM 61.9 °F 59.9 °F 93% 30.11 in 5.0 mi ESE 4.6 mph - N/A   Mist
12:35 AM 61.9 °F 59.9 °F 93% 30.11 in 5.0 mi ESE 5.8 mph - N/A   Mist
12:55 AM 61.7 °F 59.7 °F 93% 30.10 in 5.0 mi ESE 5.8 mph - N/A   Mist
1:15 AM 61.9 °F 59.9 °F 93% 30.10 in 7.0 mi SE 5.8 mph - N/A   Unknown
1:35 AM 62.1 °F 59.9 °F 93% 30.10 in 7.0 mi SE 4.6 mph - N/A   Unknown
1:55 AM 61.9 °F 59.9 °F 93% 30.10 in 5.0 mi ESE 5.8 mph - N/A   Mist
2:15 AM 62.6 °F 60.4 °F 93% 30.09 in 7.0 mi ESE 5.8 mph - N/A   Unknown
2:35 AM 63.0 °F 60.8 °F 93% 30.09 in 7.0 mi ESE 5.8 mph - N/A   Unknown
2:55 AM 62.8 °F 60.8 °F 93% 30.08 in 7.0 mi ESE 5.8 mph - N/A   Unknown
3:15 AM 62.6 °F 60.3 °F 92% 30.08 in 7.0 mi ESE 6.9 mph - N/A   Unknown
3:35 AM 62.6 °F 60.3 °F 92% 30.08 in 7.0 mi ESE 4.6 mph - N/A   Unknown
3:55 AM 62.4 °F 59.9 °F 91% 30.08 in 7.0 mi ESE 5.8 mph - N/A   Unknown
4:15 AM 61.7 °F 59.2 °F 91% 30.09 in 7.0 mi ESE 4.6 mph - N/A   Unknown
4:35 AM 61.0 °F 58.6 °F 92% 30.09 in 5.0 mi ESE 5.8 mph - N/A   Mist
4:55 AM 61.0 °F 59.0 °F 93% 30.10 in 5.0 mi ESE 3.5 mph - N/A   Mist
5:55 AM 62.6 °F 60.8 °F 94% 30.10 in 5.0 mi ESE 9.2 mph - N/A   Mist
6:55 AM 64.4 °F 62.6 °F 94% 30.12 in 6.0 mi ESE 6.9 mph - N/A   Mist
7:55 AM 66.2 °F 64.4 °F 94% 30.13 in 6.0 mi ESE 6.9 mph - N/A   Overcast
8:50 AM 69.8 °F 64.4 °F 83% 30.14 in 6.0 mi SE 6.9 mph - N/A   Mostly Cloudy
9:50 AM 73.4 °F 64.4 °F 73% 30.14 in 6.0 mi SE 6.9 mph - N/A   Mostly Cloudy
10:50 AM 77.0 °F 64.4 °F 65% 30.14 in 7.0 mi SE 6.9 mph - N/A   Mostly Cloudy
11:50 AM 78.8 °F 64.4 °F 61% 30.12 in 7.0 mi SSE 5.8 mph - N/A   Mostly Cloudy
12:51 PM 78.8 °F 64.4 °F 61% 30.11 in 7.0 mi SSE 15.0 mph - N/A   Scattered Clouds
1:50 PM 78.8 °F 64.4 °F 61% 30.07 in 7.0 mi SSE 16.1 mph - N/A   Scattered Clouds
2:50 PM 77.0 °F 62.6 °F 61% 30.04 in 7.0 mi SSE 15.0 mph - N/A   Scattered Clouds
3:48 PM 75.2 °F 62.6 °F 65% 30.04 in 7.0 mi SE 15.0 mph - N/A   Scattered Clouds
4:48 PM 73.4 °F 64.4 °F 73% 30.02 in 7.0 mi SSE 19.6 mph - N/A   Scattered Clouds
5:48 PM 71.6 °F 64.4 °F 78% 30.00 in 7.0 mi South 11.5 mph - N/A   Scattered Clouds
6:15 PM 70.3 °F 64.4 °F 81% 29.99 in 7.0 mi SSE 11.5 mph - N/A   Unknown
6:35 PM 69.8 °F 64.4 °F 83% 29.99 in 7.0 mi SSE 8.1 mph 16.1 mph N/A   Unknown
6:48 PM 69.8 °F 64.4 °F 83% 29.99 in 7.0 mi South 11.5 mph - N/A   Scattered Clouds
6:55 PM 69.3 °F 64.4 °F 84% 29.98 in 10.0 mi SSE 12.7 mph 17.3 mph N/A   Unknown
7:15 PM 69.1 °F 63.7 °F 83% 29.99 in 7.0 mi SSE 4.6 mph - N/A   Unknown
7:35 PM 68.9 °F 63.5 °F 83% 29.99 in 10.0 mi South 6.9 mph - N/A   Unknown
7:55 PM 68.9 °F 63.1 °F 82% 29.99 in 7.0 mi SSE 9.2 mph - N/A   Unknown
8:15 PM 68.0 °F 63.1 °F 84% 29.99 in 10.0 mi SSE 8.1 mph - N/A   Unknown
8:35 PM 68.0 °F 62.8 °F 83% 29.99 in 7.0 mi SSE 5.8 mph - N/A   Unknown
8:55 PM 68.0 °F 62.8 °F 83% 29.99 in 7.0 mi SSE 6.9 mph - N/A   Unknown
9:15 PM 68.0 °F 62.8 °F 83% 29.98 in 10.0 mi SSE 6.9 mph - N/A   Unknown
9:35 PM 68.0 °F 62.8 °F 83% 29.99 in 7.0 mi South 8.1 mph - N/A   Unknown
9:55 PM 67.8 °F 62.8 °F 84% 29.99 in 7.0 mi South 6.9 mph - N/A   Unknown
10:15 PM 68.0 °F 62.8 °F 83% 29.98 in 7.0 mi South 9.2 mph - N/A   Unknown
10:35 PM 68.4 °F 63.1 °F 83% 29.99 in 10.0 mi South 5.8 mph - N/A   Unknown
10:55 PM 68.4 °F 63.0 °F 83% 29.99 in 7.0 mi South 5.8 mph - N/A   Unknown
11:15 PM 68.5 °F 63.0 °F 82% 29.99 in 7.0 mi South 6.9 mph - N/A   Unknown
11:35 PM 68.9 °F 62.6 °F 80% 29.99 in 7.0 mi South 5.8 mph - N/A   Unknown
11:55 PM 68.9 °F 62.8 °F 81% 29.99 in 10.0 mi South 6.9 mph - N/A   Unknown